Estación de Morza
Ultimos registro cada 15 minutos 72
| N° | Estación | Fecha / Hora | Temperatura | Humedad | Lluvia | Velocidad | Dirección | Radiación | Presion |
| 72 | Morza | 01-09-2026 17:45 | 20,3 | 61 | 0 | 0 | 246 | 18 | 1016,5 |
| 71 | Morza | 01-09-2026 17:30 | 20,7 | 60 | 0 | 0 | 246 | 32 | 1016,4 |
| 70 | Morza | 01-09-2026 17:15 | 21,1 | 59 | 0 | 0 | 246 | 46 | 1016,4 |
| 69 | Morza | 01-09-2026 17:00 | 21,4 | 58 | 0 | 0 | 246 | 53 | 1016,2 |
| 68 | Morza | 01-09-2026 16:45 | 21,7 | 57 | 0 | 0 | 246 | 76 | 1015,9 |
| 67 | Morza | 01-09-2026 16:30 | 21,9 | 57 | 0 | 0 | 210 | 102 | 1016,2 |
| 66 | Morza | 01-09-2026 16:15 | 22 | 56 | 0 | 0 | 271 | 153 | 1016,3 |
| 65 | Morza | 01-09-2026 16:00 | 21,8 | 51 | 0 | 0 | 289 | 218 | 1016,4 |
| 64 | Morza | 01-09-2026 15:45 | 21,8 | 55 | 0 | 0,4 | 284 | 179 | 1016,3 |
| 63 | Morza | 01-09-2026 15:30 | 21,9 | 56 | 0 | 0,4 | 78 | 193 | 1016,1 |
| 62 | Morza | 01-09-2026 15:15 | 22,1 | 57 | 0 | 0,9 | 339 | 243 | 1016,4 |
| 61 | Morza | 01-09-2026 15:00 | 22,4 | 54 | 0 | 0,9 | 340 | 262 | 1016,3 |
| 60 | Morza | 01-09-2026 14:45 | 22,5 | 57 | 0 | 0 | 1 | 339 | 1016,5 |
| 59 | Morza | 01-09-2026 14:30 | 23,2 | 49 | 0 | 0,9 | 285 | 325 | 1016,6 |
| 58 | Morza | 01-09-2026 14:15 | 22,8 | 51 | 0 | 0,4 | 308 | 501 | 1016,9 |
| 57 | Morza | 01-09-2026 14:00 | 22,6 | 58 | 0 | 0,4 | 25 | 663 | 1017,1 |
| 56 | Morza | 01-09-2026 13:45 | 22,4 | 55 | 0 | 0,4 | 78 | 443 | 1017,5 |
| 55 | Morza | 01-09-2026 13:30 | 21,8 | 52 | 0 | 0,4 | 79 | 519 | 1017,7 |
| 54 | Morza | 01-09-2026 13:15 | 21,1 | 61 | 0 | 0,4 | 20 | 436 | 1018,2 |
| 53 | Morza | 01-09-2026 13:00 | 20,8 | 56 | 0 | 0,9 | 13 | 679 | 1018,4 |
| 52 | Morza | 01-09-2026 12:45 | 20,9 | 64 | 0 | 1,3 | 360 | 638 | 1018,7 |
| 51 | Morza | 01-09-2026 12:30 | 20,3 | 58 | 0 | 0,9 | 313 | 652 | 1018,9 |
| 50 | Morza | 01-09-2026 12:15 | 20,1 | 63 | 0 | 0,4 | 344 | 608 | 1019,3 |
| 49 | Morza | 01-09-2026 12:00 | 19,8 | 61 | 0 | 0,4 | 352 | 633 | 1019,4 |
| 48 | Morza | 01-09-2026 11:45 | 19,3 | 63 | 0 | 0,4 | 82 | 640 | 1019,7 |
| 47 | Morza | 01-09-2026 11:30 | 18,5 | 64 | 0 | 0,4 | 248 | 638 | 1019,8 |
| 46 | Morza | 01-09-2026 11:15 | 18,1 | 68 | 0 | 0,4 | 328 | 673 | 1020 |
| 45 | Morza | 01-09-2026 11:00 | 17,4 | 71 | 0 | 0 | 46 | 580 | 1019,9 |
| 44 | Morza | 01-09-2026 10:45 | 16,3 | 76 | 0 | 0,9 | 265 | 533 | 1020,1 |
| 43 | Morza | 01-09-2026 10:30 | 15,8 | 75 | 0 | 0,9 | 342 | 320 | 1020,4 |
| 42 | Morza | 01-09-2026 10:15 | 15,3 | 76 | 0 | 0,4 | 300 | 313 | 1020,4 |
| 41 | Morza | 01-09-2026 10:00 | 15,1 | 73 | 0 | 0 | 327 | 258 | 1020,6 |
| 40 | Morza | 01-09-2026 09:45 | 14,8 | 75 | 0 | 0 | 293 | 406 | 1020,8 |
| 39 | Morza | 01-09-2026 09:30 | 14,4 | 76 | 0 | 0 | 9 | 362 | 1020,6 |
| 38 | Morza | 01-09-2026 09:15 | 13,4 | 79 | 0 | 0,4 | 1 | 323 | 1020,6 |
| 37 | Morza | 01-09-2026 09:00 | 13,2 | 81 | 0 | 0,4 | 11 | 283 | 1020,9 |
| 36 | Morza | 01-09-2026 08:45 | 11,7 | 86 | 0 | 0 | 104 | 243 | 1020,8 |
| 35 | Morza | 01-09-2026 08:30 | 9,6 | 94 | 0 | 0,4 | 103 | 195 | 1020,7 |
| 34 | Morza | 01-09-2026 08:15 | 8 | 94 | 0 | 0 | 230 | 65 | 1020,4 |
| 33 | Morza | 01-09-2026 08:00 | 7,9 | 93 | 0 | 0 | 230 | 19 | 1020,1 |
| 32 | Morza | 01-09-2026 07:45 | 8,1 | 93 | 0 | 0 | 149 | 16 | 1020 |
| 31 | Morza | 01-09-2026 07:30 | 8,2 | 93 | 0 | 0,4 | 149 | 11 | 1020 |
| 30 | Morza | 01-09-2026 07:15 | 8,3 | 93 | 0 | 0 | 149 | 5 | 1019,9 |
| 29 | Morza | 01-09-2026 07:00 | 8,5 | 93 | 0 | 0 | 149 | 0 | 1019,7 |
| 28 | Morza | 01-09-2026 06:45 | 8,6 | 93 | 0 | 0 | 149 | 0 | 1019,8 |
| 27 | Morza | 01-09-2026 06:30 | 8,6 | 93 | 0 | 0 | 149 | 0 | 1019,8 |
| 26 | Morza | 01-09-2026 06:15 | 8,7 | 92 | 0 | 0 | 149 | 0 | 1019,6 |
| 25 | Morza | 01-09-2026 06:00 | 8,7 | 92 | 0 | 0 | 149 | 0 | 1019,6 |
| 24 | Morza | 01-09-2026 05:45 | 8,7 | 92 | 0 | 0 | 149 | 0 | 1019,4 |
| 23 | Morza | 01-09-2026 05:30 | 8,8 | 92 | 0 | 0 | 149 | 0 | 1019,4 |
| 22 | Morza | 01-09-2026 05:15 | 8,8 | 93 | 0 | 0 | 149 | 0 | 1019,4 |
| 21 | Morza | 01-09-2026 05:00 | 8,7 | 92 | 0 | 0 | 149 | 0 | 1019,5 |
| 20 | Morza | 01-09-2026 04:45 | 8,7 | 92 | 0 | 0 | 149 | 0 | 1019,5 |
| 19 | Morza | 01-09-2026 04:30 | 8,8 | 91 | 0 | 0 | 149 | 0 | 1019,5 |
| 18 | Morza | 01-09-2026 04:15 | 8,9 | 90 | 0 | 0 | 186 | 0 | 1019,6 |
| 17 | Morza | 01-09-2026 04:00 | 9,2 | 90 | 0 | 0 | 186 | 0 | 1019,6 |
| 16 | Morza | 01-09-2026 03:45 | 9,3 | 90 | 0 | 0 | 186 | 0 | 1019,8 |
| 15 | Morza | 01-09-2026 03:30 | 9,3 | 90 | 0 | 0,4 | 186 | 0 | 1019,7 |
| 14 | Morza | 01-09-2026 03:15 | 9,4 | 90 | 0 | 0 | 186 | 0 | 1019,8 |
| 13 | Morza | 01-09-2026 03:00 | 9,4 | 90 | 0 | 0 | 186 | 0 | 1020 |
| 12 | Morza | 01-09-2026 02:45 | 9,6 | 89 | 0 | 0 | 186 | 0 | 1020,1 |
| 11 | Morza | 01-09-2026 02:30 | 9,6 | 90 | 0 | 0 | 153 | 0 | 1020,4 |
| 10 | Morza | 01-09-2026 02:15 | 9,4 | 90 | 0 | 0 | 153 | 0 | 1020,5 |
| 9 | Morza | 01-09-2026 02:00 | 9,2 | 91 | 0 | 0 | 213 | 0 | 1020,7 |
| 8 | Morza | 01-09-2026 01:45 | 9,2 | 91 | 0 | 0 | 213 | 0 | 1020,8 |
| 7 | Morza | 01-09-2026 01:30 | 9,1 | 91 | 0 | 0 | 213 | 0 | 1020,8 |
| 6 | Morza | 01-09-2026 01:15 | 9,1 | 90 | 0 | 0 | 213 | 0 | 1020,7 |
| 5 | Morza | 01-09-2026 01:00 | 9,1 | 90 | 0 | 0 | 213 | 0 | 1020,8 |
| 4 | Morza | 01-09-2026 00:45 | 9,2 | 89 | 0 | 0 | 213 | 0 | 1020,8 |
| 3 | Morza | 01-09-2026 00:30 | 9,3 | 89 | 0 | 0 | 213 | 0 | 1020,9 |
| 2 | Morza | 01-09-2026 00:15 | 9,3 | 88 | 0 | 0 | 213 | 0 | 1020,9 |
| 1 | Morza | 01-09-2026 00:00 | 9,3 | 88 | 0 | 0 | 243 | 0 | 1021,1 |